Hourly Weather Gogolin

Today, 15 May, Saturday

Time Temperature Precipitation Wind Pressure Humidity
00:00 +9°C° 0 mm 3 mps 739 mmHg 93%
01:00 +9°C° 0 mm 3 mps 739 mmHg 93%
02:00 +9°C° 0 mm 3 mps 739 mmHg 93%
03:00 +8°C° 0 mm 4 mps 740 mmHg 93%
04:00 +8°C° 0 mm 4 mps 740 mmHg 93%
05:00 +10°C° 0 mm 4 mps 740 mmHg 87%
06:00 +9°C° 0 mm 5 mps 740 mmHg 82%
07:00 +10°C° 0 mm 5 mps 741 mmHg 78%
08:00 +13°C° 0 mm 5 mps 741 mmHg 72%
09:00 +14°C° 0 mm 5 mps 741 mmHg 67%
10:00 +15°C° 0 mm 5 mps 741 mmHg 61%
11:00 +17°C° 0 mm 4 mps 741 mmHg 59%
12:00 +17°C° 0 mm 3 mps 741 mmHg 56%
13:00 +18°C° 0 mm 3 mps 741 mmHg 53%
14:00 +18°C° 0 mm 2 mps 741 mmHg 53%
15:00 +18°C° 0 mm 2 mps 740 mmHg 53%
16:00 +20°C° 0 mm 1 mps 740 mmHg 53%
17:00 +17°C° 0 mm 2 mps 740 mmHg 59%
18:00 +16°C° 0 mm 2 mps 740 mmHg 65%
19:00 +15°C° 0 mm 2 mps 740 mmHg 70%
20:00 +14°C° 0 mm 2 mps 740 mmHg 73%
21:00 +12°C° 0 mm 3 mps 740 mmHg 76%
22:00 +12°C° 0 mm 3 mps 740 mmHg 79%
23:00 +11°C° 0.1 mm 3 mps 740 mmHg 82%

Tomorrow, 16 May, Sunday

Time Temperature Precipitation Wind Pressure Humidity
00:00 +11°C° 0.1 mm 3 mps 740 mmHg 85%
01:00 +11°C° 0.1 mm 3 mps 739 mmHg 88%
02:00 +11°C° 0.3 mm 3 mps 739 mmHg 90%
03:00 +11°C° 0.3 mm 3 mps 739 mmHg 92%
04:00 +11°C° 0.3 mm 3 mps 739 mmHg 94%
05:00 +12°C° 0 mm 3 mps 739 mmHg 92%
06:00 +13°C° 0 mm 2 mps 739 mmHg 89%
07:00 +14°C° 0 mm 2 mps 739 mmHg 86%
08:00 +15°C° 0.5 mm 2 mps 739 mmHg 82%
09:00 +16°C° 0.5 mm 2 mps 739 mmHg 79%
10:00 +16°C° 0.5 mm 2 mps 739 mmHg 75%
11:00 +17°C° 0.6 mm 2 mps 739 mmHg 72%
12:00 +18°C° 0.6 mm 3 mps 738 mmHg 70%
13:00 +18°C° 0.6 mm 3 mps 738 mmHg 67%
14:00 +17°C° 0.9 mm 3 mps 738 mmHg 74%
15:00 +16°C° 0.9 mm 3 mps 738 mmHg 81%
16:00 +13°C° 0.9 mm 4 mps 738 mmHg 88%
17:00 +13°C° 1.2 mm 3 mps 738 mmHg 90%
18:00 +12°C° 1.2 mm 3 mps 738 mmHg 92%
19:00 +12°C° 1.2 mm 2 mps 738 mmHg 95%
20:00 +12°C° 0.3 mm 2 mps 738 mmHg 95%
21:00 +10°C° 0.3 mm 2 mps 738 mmHg 95%
22:00 +10°C° 0.3 mm 2 mps 738 mmHg 95%
23:00 +9°C° 0 mm 2 mps 738 mmHg 95%

Day after tomorrow, 17 May, Monday

Time Temperature Precipitation Wind Pressure Humidity
00:00 +9°C° 0 mm 3 mps 738 mmHg 95%
01:00 +8°C° 0 mm 3 mps 738 mmHg 95%
02:00 +8°C° 0 mm 3 mps 738 mmHg 95%
03:00 +8°C° 0 mm 3 mps 738 mmHg 94%
04:00 +8°C° 0 mm 3 mps 738 mmHg 94%
05:00 +9°C° 0 mm 3 mps 739 mmHg 90%
06:00 +11°C° 0 mm 3 mps 739 mmHg 86%
07:00 +12°C° 0 mm 3 mps 739 mmHg 82%
08:00 +13°C° 0.1 mm 3 mps 739 mmHg 77%
09:00 +16°C° 0.1 mm 3 mps 739 mmHg 73%
10:00 +17°C° 0.1 mm 4 mps 739 mmHg 69%
11:00 +15°C° 0.5 mm 4 mps 739 mmHg 71%
12:00 +15°C° 0.5 mm 5 mps 739 mmHg 72%
13:00 +15°C° 0.5 mm 5 mps 738 mmHg 74%
14:00 +15°C° 0.2 mm 4 mps 738 mmHg 75%
15:00 +14°C° 0.2 mm 4 mps 738 mmHg 77%
16:00 +13°C° 0.2 mm 3 mps 738 mmHg 78%
17:00 +13°C° 0.6 mm 3 mps 738 mmHg 83%
18:00 +13°C° 0.6 mm 2 mps 738 mmHg 88%
19:00 +12°C° 0.6 mm 2 mps 738 mmHg 93%
20:00 +12°C° 0.5 mm 2 mps 738 mmHg 93%
21:00 +11°C° 0.5 mm 1 mps 738 mmHg 94%
22:00 +11°C° 0.5 mm 1 mps 738 mmHg 94%
23:00 +10°C° 0.1 mm 2 mps 738 mmHg 94%

18 May, Tuesday

Time Temperature Precipitation Wind Pressure Humidity
00:00 +9°C° 0.1 mm 3 mps 738 mmHg 94%
01:00 +8°C° 0.1 mm 4 mps 738 mmHg 95%
02:00 +7°C° 0 mm 4 mps 738 mmHg 95%
03:00 +7°C° 0 mm 4 mps 738 mmHg 96%
04:00 +6°C° 0 mm 5 mps 738 mmHg 96%
05:00 +7°C° 0 mm 5 mps 738 mmHg 93%
06:00 +8°C° 0 mm 6 mps 738 mmHg 89%
07:00 +9°C° 0 mm 6 mps 739 mmHg 86%
08:00 +10°C° 0.1 mm 7 mps 739 mmHg 80%
09:00 +11°C° 0.1 mm 7 mps 739 mmHg 75%
10:00 +14°C° 0.1 mm 7 mps 739 mmHg 69%
11:00 +14°C° 0.3 mm 7 mps 739 mmHg 70%
12:00 +14°C° 0.3 mm 7 mps 739 mmHg 70%
13:00 +14°C° 0.3 mm 7 mps 739 mmHg 71%
14:00 +14°C° 0.3 mm 6 mps 739 mmHg 72%
15:00 +14°C° 0.3 mm 6 mps 739 mmHg 73%
16:00 +14°C° 0.3 mm 6 mps 740 mmHg 75%
17:00 +13°C° 0.2 mm 6 mps 740 mmHg 78%
18:00 +12°C° 0.2 mm 5 mps 740 mmHg 82%
19:00 +10°C° 0.2 mm 5 mps 740 mmHg 85%
20:00 +9°C° 0 mm 5 mps 740 mmHg 88%
21:00 +8°C° 0 mm 4 mps 741 mmHg 91%
22:00 +7°C° 0 mm 4 mps 741 mmHg 94%
23:00 +7°C° 0 mm 4 mps 741 mmHg 94%

19 May, Wednesday

Time Temperature Precipitation Wind Pressure Humidity
00:00 +6°C° 0 mm 4 mps 741 mmHg 95%
01:00 +6°C° 0 mm 4 mps 742 mmHg 95%
02:00 +6°C° 0 mm 4 mps 742 mmHg 95%
03:00 +6°C° 0 mm 4 mps 742 mmHg 96%
04:00 +5°C° 0 mm 4 mps 742 mmHg 96%
05:00 +7°C° 0 mm 5 mps 743 mmHg 92%
06:00 +8°C° 0 mm 5 mps 743 mmHg 87%
07:00 +9°C° 0 mm 6 mps 743 mmHg 83%
08:00 +10°C° 0.1 mm 6 mps 743 mmHg 77%
09:00 +11°C° 0.1 mm 6 mps 744 mmHg 71%
10:00 +13°C° 0.1 mm 6 mps 744 mmHg 65%
11:00 +13°C° 0.2 mm 6 mps 744 mmHg 69%
12:00 +11°C° 0.2 mm 6 mps 744 mmHg 72%
13:00 +11°C° 0.2 mm 6 mps 744 mmHg 75%
14:00 +12°C° 0.3 mm 5 mps 744 mmHg 75%
15:00 +12°C° 0.3 mm 5 mps 744 mmHg 75%
16:00 +12°C° 0.3 mm 5 mps 744 mmHg 75%
17:00 +11°C° 0.1 mm 4 mps 744 mmHg 76%
18:00 +11°C° 0.1 mm 4 mps 744 mmHg 78%
19:00 +10°C° 0.1 mm 3 mps 744 mmHg 80%
20:00 +9°C° 0 mm 3 mps 744 mmHg 82%
21:00 +8°C° 0 mm 3 mps 745 mmHg 84%
22:00 +7°C° 0 mm 3 mps 745 mmHg 86%
23:00 +5°C° 0 mm 3 mps 745 mmHg 88%

20 May, Thursday

Time Temperature Precipitation Wind Pressure Humidity
00:00 +5°C° 0 mm 3 mps 745 mmHg 89%
01:00 +5°C° 0 mm 3 mps 745 mmHg 91%
02:00 +5°C° 0 mm 3 mps 745 mmHg 92%
03:00 +4°C° 0 mm 4 mps 745 mmHg 93%
04:00 +4°C° 0 mm 4 mps 746 mmHg 94%
05:00 +6°C° 0 mm 4 mps 746 mmHg 90%
06:00 +8°C° 0 mm 5 mps 746 mmHg 85%
07:00 +9°C° 0 mm 5 mps 746 mmHg 81%
08:00 +10°C° 0.2 mm 6 mps 746 mmHg 77%
09:00 +11°C° 0.2 mm 6 mps 746 mmHg 73%
10:00 +11°C° 0.2 mm 6 mps 746 mmHg 69%
11:00 +13°C° 0.2 mm 6 mps 746 mmHg 66%
12:00 +14°C° 0.2 mm 6 mps 746 mmHg 63%
13:00 +14°C° 0.2 mm 6 mps 746 mmHg 60%
14:00 +14°C° 0.2 mm 6 mps 746 mmHg 60%
15:00 +14°C° 0.2 mm 6 mps 745 mmHg 61%
16:00 +14°C° 0.2 mm 5 mps 745 mmHg 61%
17:00 +13°C° 0.1 mm 5 mps 745 mmHg 66%
18:00 +12°C° 0.1 mm 4 mps 745 mmHg 72%
19:00 +11°C° 0.1 mm 3 mps 745 mmHg 77%
20:00 +10°C° 0 mm 3 mps 744 mmHg 80%
21:00 +9°C° 0 mm 3 mps 744 mmHg 82%
22:00 +9°C° 0 mm 3 mps 744 mmHg 85%
23:00 +9°C° 0 mm 3 mps 744 mmHg 84%
Show more